TimeWEST,TemperatureF,Dew PointF,Humidity,Sea Level PressureIn,VisibilityMPH,Wind Direction,Wind SpeedMPH,Gust SpeedMPH,PrecipitationIn,Events,Conditions,WindDirDegrees,DateUTC
12:00 AM,66.2,51.8,60,30.12,-9999.0,NE,8.1,-,N/A,,Clear,40,2013-06-09 23:00:00
12:30 AM,66.2,51.8,60,30.12,-9999.0,NE,5.8,-,N/A,,Clear,50,2013-06-09 23:30:00
1:00 AM,65,51,50,30.09,6,ENE,8.1,,,,,70,2013-06-10 00:00:00
1:00 AM,64.4,51.8,64,30.12,-9999.0,ENE,8.1,-,N/A,,Clear,70,2013-06-10 00:00:00
1:30 AM,64.4,51.8,64,30.12,-9999.0,NE,8.1,-,N/A,,Clear,40,2013-06-10 00:30:00
2:00 AM,64.4,50.0,59,30.12,-9999.0,NE,6.9,-,N/A,,Clear,50,2013-06-10 01:00:00
2:30 AM,62.6,50.0,63,30.12,-9999.0,NE,3.5,-,N/A,,Clear,40,2013-06-10 01:30:00
3:00 AM,62.6,50.0,63,30.09,-9999.0,East,3.5,-,N/A,,Clear,80,2013-06-10 02:00:00
3:30 AM,60.8,50.0,68,30.09,-9999.0,East,4.6,-,N/A,,Clear,90,2013-06-10 02:30:00
4:00 AM,61,50,57,30.08,6,ENE,3.5,,,,,70,2013-06-10 03:00:00
4:00 AM,60.8,50.0,68,30.09,-9999.0,East,4.6,-,N/A,,Clear,80,2013-06-10 03:00:00
4:30 AM,60.8,50.0,68,30.09,-9999.0,West,3.5,-,N/A,,Clear,260,2013-06-10 03:30:00
5:00 AM,60.8,50.0,68,30.09,-9999.0,SW,5.8,-,N/A,,Clear,220,2013-06-10 04:00:00
5:30 AM,59.0,50.0,72,30.09,-9999.0,SW,4.6,-,N/A,,Clear,230,2013-06-10 04:30:00
6:00 AM,59.0,50.0,72,30.12,-9999.0,SW,4.6,-,N/A,,Clear,230,2013-06-10 05:00:00
6:30 AM,57.2,50.0,77,30.12,-9999.0,SW,4.6,-,N/A,,Clear,230,2013-06-10 05:30:00
7:00 AM,58,50,66,30.12,6,WSW,3.5,,,,,240,2013-06-10 06:00:00
7:00 AM,57.2,50.0,77,30.12,-9999.0,WSW,3.5,-,N/A,,Clear,240,2013-06-10 06:00:00
7:30 AM,59.0,50.0,72,30.12,-9999.0,WSW,4.6,-,N/A,,Clear,240,2013-06-10 06:30:00
8:00 AM,60.8,50.0,68,30.12,-9999.0,West,3.5,-,N/A,,Clear,260,2013-06-10 07:00:00
8:30 AM,62.6,50.0,63,30.12,-9999.0,West,4.6,-,N/A,,Clear,260,2013-06-10 07:30:00
9:00 AM,64.4,51.8,64,30.15,-9999.0,West,3.5,-,N/A,,Clear,280,2013-06-10 08:00:00
9:30 AM,66.2,51.8,60,30.15,-9999.0,Variable,2.3,-,N/A,,Clear,0,2013-06-10 08:30:00
10:00 AM,68,52,45,30.11,6,WNW,3.5,,,,,290,2013-06-10 09:00:00
10:00 AM,68.0,51.8,56,30.15,-9999.0,West,3.5,-,N/A,,Clear,270,2013-06-10 09:00:00
10:30 AM,69.8,51.8,53,30.15,-9999.0,Variable,2.3,-,N/A,,Clear,0,2013-06-10 09:30:00
11:00 AM,71.6,51.8,50,30.15,-9999.0,Variable,3.5,-,N/A,,Clear,0,2013-06-10 10:00:00
11:30 AM,73.4,51.8,47,30.12,-9999.0,Variable,3.5,-,N/A,,Clear,0,2013-06-10 10:30:00
12:00 PM,75.2,51.8,44,30.12,-9999.0,NNE,6.9,-,N/A,,Clear,20,2013-06-10 11:00:00
12:30 PM,75.2,51.8,44,30.12,-9999.0,Variable,4.6,-,N/A,,Clear,0,2013-06-10 11:30:00
1:00 PM,78,51,28,30.05,6,North,6.9,,,,,350,2013-06-10 12:00:00
1:00 PM,77.0,50.0,39,30.12,-9999.0,North,8.1,-,N/A,,Clear,350,2013-06-10 12:00:00
1:30 PM,78.8,50.0,36,30.09,-9999.0,NNE,5.8,-,N/A,,Clear,20,2013-06-10 12:30:00
2:00 PM,80.6,50.0,34,30.09,-9999.0,East,6.9,-,N/A,,Clear,80,2013-06-10 13:00:00
2:30 PM,84.2,48.2,29,30.06,-9999.0,NE,6.9,-,N/A,,Clear,50,2013-06-10 13:30:00
3:00 PM,84.2,48.2,29,30.06,-9999.0,Variable,5.8,-,N/A,,Clear,0,2013-06-10 14:00:00
3:30 PM,86.0,46.4,25,30.06,-9999.0,Variable,4.6,-,N/A,,Clear,0,2013-06-10 14:30:00
4:00 PM,86,47,16,29.95,6,WNW,5.8,,,,,300,2013-06-10 15:00:00
4:00 PM,86.0,48.2,27,30.04,-9999.0,NW,6.9,-,N/A,,Clear,320,2013-06-10 15:00:00
4:30 PM,87.8,44.6,22,30.04,-9999.0,North,8.1,-,N/A,,Clear,10,2013-06-10 15:30:00
5:00 PM,87.8,44.6,22,30.04,-9999.0,NNE,6.9,-,N/A,,Clear,20,2013-06-10 16:00:00
5:30 PM,89.6,44.6,21,30.01,-9999.0,NNW,5.8,-,N/A,,Clear,330,2013-06-10 16:30:00
6:00 PM,89.6,44.6,21,30.01,-9999.0,Variable,5.8,-,N/A,,Clear,0,2013-06-10 17:00:00
6:30 PM,89.6,42.8,20,30.01,-9999.0,Variable,3.5,-,N/A,,Clear,0,2013-06-10 17:30:00
7:00 PM,88,44,13,29.92,6,North,9.2,,,,,350,2013-06-10 18:00:00
7:00 PM,87.8,44.6,22,30.01,-9999.0,North,9.2,-,N/A,,Clear,350,2013-06-10 18:00:00
7:30 PM,87.8,46.4,24,30.04,-9999.0,North,8.1,-,N/A,,Clear,360,2013-06-10 18:30:00
8:00 PM,86.0,44.6,23,30.04,-9999.0,North,9.2,-,N/A,,Clear,360,2013-06-10 19:00:00
8:30 PM,86.0,44.6,23,30.04,-9999.0,North,8.1,-,N/A,,Clear,360,2013-06-10 19:30:00
9:00 PM,84.2,44.6,25,30.04,-9999.0,North,8.1,-,N/A,,Clear,360,2013-06-10 20:00:00
9:30 PM,77.0,53.6,44,30.06,-9999.0,North,13.8,-,N/A,,Clear,360,2013-06-10 20:30:00
10:00 PM,75,53,36,30.03,6,NNE,13.8,,,,,20,2013-06-10 21:00:00
10:00 PM,75.2,53.6,47,30.09,-9999.0,NNE,12.7,-,N/A,,Clear,20,2013-06-10 21:00:00
10:30 PM,73.4,53.6,50,30.09,-9999.0,NNE,12.7,-,N/A,,Clear,30,2013-06-10 21:30:00
11:00 PM,71.6,53.6,53,30.12,-9999.0,NNE,8.1,-,N/A,,Clear,20,2013-06-10 22:00:00
11:30 PM,69.8,53.6,56,30.15,-9999.0,Variable,2.3,-,N/A,,Clear,0,2013-06-10 22:30:00